Terug naar catalogus

GSAT 30

ActiefCommunicatieGEO
NORAD 45026·PAYLOAD·🇮🇳 India

Gelanceerd Jan 16, 2020 vanaf Guiana Space Centre

Loading…

TLE

VersSource: Space-Track

Epoch: Sep 14, 2026, 09:03 UTC

1 45026U 20005A   26257.37777182 -.00000173  00000-0  00000-0 0  9990
2 45026   0.0111 130.1448 0001792 356.2159  85.9837  1.00269885 24402

Volg GSAT 30 in realtime met AllMySat

Download on the App Store